Regional Weather Roundup
Issued by NWS

Home | Current Version | Previous Version | Graphics & Text | Print | Product List | Glossary On
Versions: 1 2 3 4 5 6 7 8 9 10 11 12 13 14 15 16 17 18 19 20 21 22 23 24 25 26 27 28 29 30 31 32 33 34 35 36 37 38 39 40 41 42 43 44 45 46 47 48 49 50
000
ASUS43 KLOT 021708
RWRIL

ILLINOIS REGIONAL WEATHER ROUNDUP
NATIONAL WEATHER SERVICE CHICAGO/ROMEOVILLE IL
1200 PM CDT MON MAY 02 2016

NOTE: "FAIR" INDICATES FEW OR NO CLOUDS BELOW 12,000 FEET WITH NO
SIGNIFICANT WEATHER AND/OR OBSTRUCTIONS TO VISIBILITY.

* THESE STATIONS ARE NOT UNDER NWS QUALITY CONTROL. THEY ALSO MAY NOT
  REPORT WEATHER SUCH AS PRECIPITATION OR FOG.

ILZ001-002-007-009-015-016-024-021800-
NORTHWEST ILLINOIS

CITY           SKY/WX    TMP DP  RH WIND       PRES   REMARKS
MOLINE         CLOUDY    56  42  59 VRB6      30.08S
STERLING*      SUNNY     57  43  58 E12G17    30.08S
SAVANNA*       MOSUNNY   58  38  47 E12       30.09R
$$

ILZ003-004-008-010-011-017-018-021800-
NORTH CENTRAL ILLINOIS

CITY           SKY/WX    TMP DP  RH WIND       PRES   REMARKS
ROCKFORD       PTSUNNY   59  36  42 NE10G20   30.08F
FREEPORT*      MOSUNNY   56  41  56 NE9       30.10R
ROCHELLE*      MOSUNNY   56  41  55 NE17      30.07S
DE KALB*       MOSUNNY   57  40  53 NE12G20   30.06S
$$

ILZ005-006-012>014-019>023-021800-
NORTHEAST ILLINOIS

CITY           SKY/WX    TMP DP  RH WIND       PRES   REMARKS
CHICAGO-OHARE  PTSUNNY   55  36  48 NE17      30.05S
CHICAGO-MIDWAY PTSUNNY   55  36  48 NE14      30.05R
AURORA         MOSUNNY   58  37  45 NE17      30.06R
LANSING*       CLOUDY    51  42  69 NE13      30.04S
JOLIET*        SUNNY     59  38  46 NE20G26   30.04S
WAUKEGAN       SUNNY     54  37  52 NE13      30.06F
DUPAGE AIRPORT SUNNY     56  35  45 NE17G23   30.05R
KANKAKEE*      MOSUNNY   55  43  63 N14G21    30.05S
WHEELING       SUNNY     54  36  50 NE12G18   30.06F
MORRIS*        SUNNY     57  38  50 NE8G16    30.04S
ROMEOVILLE*    SUNNY     56  35  46 NE13G25   30.04S
NORTHERLY ISL    N/A     48  38  68 NW12        N/A
NORTHERLY ISL    N/A     48  38  68 NW12        N/A
$$

LMZ740>746-021800-
SOUTHERN LAKE MICHIGAN

STATION/POSITION SKY/WX   TEMP    WIND        PRES    VSBY  WAVE
                          AIR SEA DIR/SP/G                  HT/PER
                          (F)     (DEG/KT/KT) (MB)    (MI)  (FT/S)
SOUTHERN BUOY              41 41  350/  6/  6 1018.2F         1/ 4
HARRISON CRIB              45     360/ 14/ 16   N/A
BURNHAM HARBOR             49     330/ 10/ 14   N/A
CALUMET HARBOR             46     340/ 14/ 19 1017.1F
BURNS HARBOR               44      20/ 12/ 17 1017.6R
MICHIGAN CITY              45     340/ 14/ 15   N/A
ST. JOSEPH                 46 48                N/A           2/ 4
$$

ILZ025>027-034>036-040-047-049-050-058-095>099-021800-
WEST-CENTRAL ILLINOIS

CITY           SKY/WX    TMP DP  RH WIND       PRES   REMARKS
QUINCY         CLOUDY    53  47  79 N7        30.08R
GALESBURG*     CLOUDY    53  46  75 N8        30.08S
MACOMB*        CLOUDY    52  47  83 N9        30.10S
JACKSONVILLE*  CLOUDY    53  47  79 NE7       30.07R
PITTSFIELD*    CLOUDY    54  48  81 NW7       30.09R
$$

ILZ028>032-037-038-041>044-048-051>054-059>061-021800-
CENTRAL ILLINOIS

CITY           SKY/WX    TMP DP  RH WIND       PRES   REMARKS
PONTIAC        CLOUDY    56  47  71 N7        30.05S
BLOOMINGTON    CLOUDY    54  48  82 NE8       30.07R
DECATUR        CLOUDY    51  45  79 N10       30.06R
PEORIA         CLOUDY    55  44  66 E5        30.06S
LACON*         CLOUDY    55  43  64 NE8       30.06R
LINCOLN*       CLOUDY    52  48  85 N7        30.07R
SPRINGFIELD    CLOUDY    53  47  79 NE9       30.07R
TAYLORVILLE    CLOUDY    52  46  82 N6        30.07R
$$

ILZ033-039-045-046-055>057-062-063-021800-
EAST-CENTRAL ILLINOIS

CITY           SKY/WX    TMP DP  RH WIND       PRES   REMARKS
CHAMPAIGN      CLOUDY    52  46  80 N10       30.04R
RANTOUL*       CLOUDY    55  48  77 NE7       30.05R
MATTOON        CLOUDY    51  47  86 NW8       30.03S
PARIS*         CLOUDY    51  50  96 NW8       30.04S FOG
$$

ILZ079-100>102-021800-
SOUTHWEST ILLINOIS

CITY           SKY/WX    TMP DP  RH WIND       PRES   REMARKS
ALTON          CLOUDY    55  48  76 NE7       30.06S
BELLEVILLE     CLOUDY    54  49  82 N6        30.06R
CAHOKIA*       CLOUDY    56  46  69 N7        30.07R
SPARTA*        CLOUDY    54  47  76 NW7       30.07R
$$

ILZ064>066-069>071-074>076-080>082-084>086-088>090-092>094-021800-
SOUTH-CENTRAL ILLINOIS

CITY           SKY/WX    TMP DP  RH WIND       PRES   REMARKS
CARBONDALE     CLOUDY    60  47  61 W3        30.04S
CAIRO*         CLOUDY    61  51  69 CALM      30.04S
EFFINGHAM*     CLOUDY    54  49  85 NW8       30.06R
MARION         CLOUDY    59  50  72 W6        30.05S
MT. VERNON     CLOUDY    55  46  71 W5        30.06R
CENTRALIA*     CLOUDY    55  51  86 NW3       30.05R
SALEM*         CLOUDY    55  49  81 N9        30.06R
METROPOLIS*    CLOUDY    63  53  70 NW5       30.04S
$$

ILZ067-068-072-073-078-083-087-091-021800-
SOUTHEAST ILLINOIS

CITY           SKY/WX    TMP DP  RH WIND       PRES   REMARKS
LAWRENCEVILLE  CLOUDY    56  49  77 NW7       30.03R
FLORA*         CLOUDY    56  49  77 NW7       30.05R
FAIRFIELD*     CLOUDY    57  49  76 N5        30.03S
HARRISBURG*    CLOUDY    60  51  71 W6        30.04S
ROBINSON*      CLOUDY    53  49  85 N5        30.04R
CARMI*         CLOUDY    59  51  75 W7        30.03S
$$

ABBREVIATIONS USED IN REMARKS
   TC - TEMPERATURE IN CELSIUS
  WCI - WIND CHILL INDEX
   HX - HEAT INDEX
  VSB - VISIBILITY
$$





USA.gov is the U.S. government's official web portal to all federal, state and local government web resources and services.